TAM3204 SBGR-SBFI

Flight info

Callsign TAM3204
Flight time N/A
Altitude 36000
Route ASETA UZ152 UPORU
Aircraft A320/M-SDE3FGHIRWY/LB1

Departure

Time N/A
Airport São Paulo/Guarulhos–Governor André Franco Montoro International Airport (SBGR)

Arrival

Time 2026-04-20 20:26
Airport Cataratas International Airport (SBFI)
Time Latitude Longitude Altitude Speed Heading
2026-04-20 20:26 -25.59733 -54.48808 799 ft 0 kts 221°
2026-04-20 20:47 -25.59723 -54.48799 798 ft 4 kts 220°
2026-04-20 20:47 -25.59705 -54.48778 798 ft 4 kts 246°
2026-04-20 20:48 -25.59702 -54.48752 798 ft 4 kts 300°
2026-04-20 20:48 -25.59706 -54.48745 798 ft 0 kts 311°
2026-04-20 20:51 -25.59706 -54.48746 798 ft 2 kts 311°
2026-04-20 20:51 -25.59658 -54.48807 798 ft 14 kts 311°
2026-04-20 20:52 -25.59596 -54.48886 799 ft 13 kts 311°
2026-04-20 20:52 -25.59545 -54.48952 799 ft 10 kts 311°
2026-04-20 20:52 -25.59504 -54.49005 799 ft 8 kts 311°
2026-04-20 20:52 -25.59470 -54.49048 799 ft 7 kts 313°
2026-04-20 20:53 -25.59434 -54.49051 799 ft 5 kts 22°
2026-04-20 20:53 -25.59377 -54.49013 800 ft 14 kts 359°
2026-04-20 20:53 -25.59312 -54.49079 799 ft 12 kts 311°
2026-04-20 20:53 -25.59239 -54.49170 799 ft 21 kts 311°
2026-04-20 20:54 -25.59135 -54.49303 796 ft 24 kts 311°
2026-04-20 20:54 -25.59023 -54.49446 797 ft 25 kts 311°
2026-04-20 20:54 -25.58906 -54.49594 797 ft 26 kts 311°
2026-04-20 20:54 -25.58792 -54.49740 800 ft 25 kts 311°
2026-04-20 20:55 -25.58688 -54.49864 801 ft 15 kts 327°
2026-04-20 20:55 -25.58591 -54.49910 801 ft 15 kts 324°
2026-04-20 20:55 -25.58572 -54.49987 801 ft 9 kts 236°
2026-04-20 20:55 -25.58611 -54.49977 802 ft 9 kts 132°
2026-04-20 20:56 -25.58786 -54.49747 800 ft 76 kts 130°
2026-04-20 20:56 -25.59281 -54.49113 800 ft 138 kts 131°
2026-04-20 20:56 -25.59743 -54.48520 865 ft 162 kts 130°
2026-04-20 20:56 -25.60473 -54.47592 1502 ft 159 kts 130°
2026-04-20 20:57 -25.61199 -54.46669 1996 ft 158 kts 128°
2026-04-20 20:57 -25.61917 -54.45746 2451 ft 159 kts 126°
2026-04-20 20:57 -25.62628 -54.44830 2890 ft 158 kts 126°
2026-04-20 20:57 -25.63389 -54.43839 3042 ft 180 kts 126°
2026-04-20 20:58 -25.64274 -54.42682 3076 ft 212 kts 127°
2026-04-20 20:58 -25.65287 -54.41369 3391 ft 231 kts 127°
2026-04-20 20:58 -25.66128 -54.39845 3882 ft 239 kts 99°
2026-04-20 20:58 -25.66046 -54.37978 4181 ft 254 kts 70°
2026-04-20 20:59 -25.65540 -54.36034 4667 ft 269 kts 72°
2026-04-20 20:59 -25.65115 -54.33979 5375 ft 276 kts 76°
2026-04-20 20:59 -25.64768 -54.31863 6120 ft 282 kts 79°
2026-04-20 20:59 -25.64480 -54.29695 6851 ft 286 kts 80°
2026-04-20 21:00 -25.64229 -54.27525 7610 ft 289 kts 81°
2026-04-20 21:00 -25.63992 -54.25308 8395 ft 291 kts 81°
2026-04-20 21:00 -25.63758 -54.23078 9188 ft 292 kts 82°
2026-04-20 21:00 -25.63524 -54.20832 9955 ft 294 kts 82°
2026-04-20 21:01 -25.63276 -54.18476 10224 ft 316 kts 82°
2026-04-20 21:01 -25.63011 -54.16010 10511 ft 333 kts 82°
2026-04-20 21:01 -25.62735 -54.13435 11081 ft 339 kts 82°
2026-04-20 21:01 -25.62455 -54.10820 11718 ft 344 kts 81°
2026-04-20 21:02 -25.62173 -54.08178 12338 ft 348 kts 81°
2026-04-20 21:02 -25.61883 -54.05492 12968 ft 353 kts 81°
2026-04-20 21:02 -25.61588 -54.02777 13595 ft 357 kts 81°
2026-04-20 21:02 -25.61291 -54.00037 14164 ft 361 kts 81°
2026-04-20 21:03 -25.60990 -53.97260 14708 ft 365 kts 81°
2026-04-20 21:03 -25.60683 -53.94453 15260 ft 369 kts 81°
2026-04-20 21:03 -25.60373 -53.91619 15806 ft 372 kts 81°
2026-04-20 21:03 -25.60062 -53.88756 16345 ft 376 kts 81°
2026-04-20 21:04 -25.59747 -53.85865 16886 ft 380 kts 81°
2026-04-20 21:04 -25.59430 -53.82945 17432 ft 384 kts 80°
2026-04-20 21:04 -25.59105 -53.79994 17950 ft 388 kts 80°
2026-04-20 21:04 -25.58774 -53.77013 18429 ft 392 kts 79°
2026-04-20 21:05 -25.58360 -53.74021 18898 ft 394 kts 77°
2026-04-20 21:05 -25.57838 -53.71023 19364 ft 397 kts 75°
2026-04-20 21:05 -25.57259 -53.68058 19829 ft 400 kts 74°
2026-04-20 21:05 -25.56647 -53.65039 20294 ft 403 kts 74°
2026-04-20 21:06 -25.56034 -53.61992 20753 ft 407 kts 74°
2026-04-20 21:06 -25.55429 -53.58912 21210 ft 411 kts 75°
2026-04-20 21:06 -25.54832 -53.55809 21672 ft 415 kts 75°
2026-04-20 21:06 -25.54239 -53.52661 22129 ft 419 kts 75°
2026-04-20 21:07 -25.53649 -53.49489 22587 ft 423 kts 75°
2026-04-20 21:07 -25.53056 -53.46289 23043 ft 426 kts 75°
2026-04-20 21:07 -25.52456 -53.43061 23495 ft 430 kts 75°
2026-04-20 21:07 -25.51847 -53.39810 23871 ft 433 kts 75°
2026-04-20 21:08 -25.51233 -53.36537 24247 ft 436 kts 75°
2026-04-20 21:08 -25.50616 -53.33245 24624 ft 438 kts 75°
2026-04-20 21:08 -25.49993 -53.29928 24996 ft 440 kts 75°
2026-04-20 21:08 -25.49367 -53.26602 25351 ft 443 kts 76°
2026-04-20 21:09 -25.48733 -53.23251 25712 ft 445 kts 76°
2026-04-20 21:09 -25.48107 -53.19947 26062 ft 447 kts 76°
2026-04-20 21:09 -25.47466 -53.16568 26397 ft 449 kts 76°
2026-04-20 21:09 -25.46824 -53.13181 26744 ft 451 kts 76°
2026-04-20 21:10 -25.46177 -53.09779 27070 ft 453 kts 76°
2026-04-20 21:10 -25.45526 -53.06361 27396 ft 455 kts 76°
2026-04-20 21:10 -25.44868 -53.02927 27723 ft 457 kts 77°
2026-04-20 21:10 -25.44206 -52.99477 28029 ft 459 kts 77°
2026-04-20 21:11 -25.43538 -52.96011 28336 ft 462 kts 77°
2026-04-20 21:11 -25.42867 -52.92527 28644 ft 464 kts 77°
2026-04-20 21:11 -25.42194 -52.89028 28936 ft 466 kts 77°
2026-04-20 21:11 -25.41518 -52.85514 29214 ft 468 kts 77°
2026-04-20 21:12 -25.40839 -52.81984 29500 ft 470 kts 77°
2026-04-20 21:12 -25.40159 -52.78438 29774 ft 472 kts 77°
2026-04-20 21:12 -25.39477 -52.74876 30035 ft 474 kts 77°
2026-04-20 21:12 -25.38790 -52.71299 30249 ft 477 kts 77°
2026-04-20 21:13 -25.38091 -52.67709 30459 ft 479 kts 77°
2026-04-20 21:13 -25.37396 -52.64152 30669 ft 481 kts 77°
2026-04-20 21:13 -25.36681 -52.60492 30873 ft 483 kts 77°
2026-04-20 21:13 -25.35982 -52.56903 31138 ft 483 kts 77°
2026-04-20 21:14 -25.35276 -52.53276 31433 ft 482 kts 77°
2026-04-20 21:14 -25.34572 -52.49650 31705 ft 483 kts 77°
2026-04-20 21:14 -25.33868 -52.46021 31989 ft 483 kts 77°
2026-04-20 21:14 -25.33159 -52.42385 32278 ft 483 kts 77°
2026-04-20 21:15 -25.32449 -52.38758 32550 ft 483 kts 77°
2026-04-20 21:15 -25.31737 -52.35129 32831 ft 483 kts 77°
2026-04-20 21:15 -25.31021 -52.31501 33122 ft 483 kts 77°
2026-04-20 21:15 -25.30303 -52.27872 33403 ft 483 kts 77°
2026-04-20 21:16 -25.29584 -52.24243 33687 ft 483 kts 78°
2026-04-20 21:16 -25.28865 -52.20604 33966 ft 484 kts 78°
2026-04-20 21:16 -25.28157 -52.17020 34218 ft 484 kts 78°
2026-04-20 21:16 -25.27436 -52.13386 34439 ft 484 kts 78°
2026-04-20 21:17 -25.26712 -52.09751 34663 ft 485 kts 78°
2026-04-20 21:17 -25.25987 -52.06114 34886 ft 485 kts 78°
2026-04-20 21:17 -25.25262 -52.02476 35092 ft 485 kts 78°
2026-04-20 21:17 -25.24537 -51.98835 35295 ft 486 kts 78°
2026-04-20 21:18 -25.23811 -51.95189 35484 ft 486 kts 78°
2026-04-20 21:18 -25.23082 -51.91533 35673 ft 487 kts 78°
2026-04-20 21:18 -25.22352 -51.87890 35865 ft 487 kts 78°
2026-04-20 21:18 -25.21620 -51.84237 36044 ft 487 kts 78°
2026-04-20 21:19 -25.20888 -51.80583 36230 ft 488 kts 79°
2026-04-20 21:19 -25.20155 -51.76928 36409 ft 487 kts 78°
2026-04-20 21:19 -25.19420 -51.73276 36609 ft 487 kts 78°
2026-04-20 21:20 -25.17946 -51.65966 36973 ft 487 kts 79°
2026-04-20 21:20 -25.16476 -51.58711 37063 ft 489 kts 78°
2026-04-20 21:21 -25.14977 -51.51323 37065 ft 497 kts 79°
2026-04-20 21:21 -25.13449 -51.43863 37070 ft 499 kts 78°
2026-04-20 21:22 -25.11915 -51.36394 37072 ft 500 kts 78°
2026-04-20 21:22 -25.10389 -51.28916 37069 ft 499 kts 78°
2026-04-20 21:23 -25.08856 -51.21446 37064 ft 499 kts 78°
2026-04-20 21:23 -25.07310 -51.13969 37067 ft 500 kts 78°
2026-04-20 21:24 -25.05758 -51.06489 37072 ft 500 kts 78°
2026-04-20 21:24 -25.04209 -50.99022 37068 ft 500 kts 78°
2026-04-20 21:25 -25.02663 -50.91589 37071 ft 500 kts 78°
2026-04-20 21:25 -25.01097 -50.84115 37073 ft 500 kts 78°
2026-04-20 21:26 -24.99530 -50.76659 37076 ft 500 kts 78°
2026-04-20 21:26 -24.97956 -50.69194 37081 ft 499 kts 78°
2026-04-20 21:27 -24.96389 -50.61744 37081 ft 498 kts 78°
2026-04-20 21:27 -24.94824 -50.54301 37084 ft 498 kts 78°
2026-04-20 21:28 -24.93260 -50.46874 37084 ft 497 kts 78°
2026-04-20 21:28 -24.91683 -50.39446 37086 ft 497 kts 78°
2026-04-20 21:29 -24.90100 -50.32040 37095 ft 496 kts 78°
2026-04-20 21:29 -24.88530 -50.24684 37093 ft 496 kts 78°
2026-04-20 21:30 -24.86945 -50.17281 37096 ft 495 kts 78°
2026-04-20 21:30 -24.85357 -50.09909 37102 ft 494 kts 78°
2026-04-20 21:31 -24.83775 -50.02543 37105 ft 494 kts 78°
2026-04-20 21:31 -24.82207 -49.95225 37105 ft 494 kts 78°
2026-04-20 21:32 -24.80620 -49.87866 37108 ft 494 kts 78°
2026-04-20 21:32 -24.78991 -49.80521 37109 ft 494 kts 76°
2026-04-20 21:33 -24.77114 -49.73242 37112 ft 495 kts 75°
2026-04-20 21:33 -24.75120 -49.65997 37114 ft 495 kts 75°
2026-04-20 21:34 -24.73166 -49.58739 37110 ft 495 kts 75°
2026-04-20 21:34 -24.71265 -49.51464 37112 ft 495 kts 76°
2026-04-20 21:35 -24.69374 -49.44183 37110 ft 495 kts 75°
2026-04-20 21:35 -24.67461 -49.36908 37109 ft 495 kts 75°
2026-04-20 21:36 -24.65560 -49.29682 37106 ft 495 kts 76°
2026-04-20 21:36 -24.63654 -49.22406 37109 ft 495 kts 76°
2026-04-20 21:37 -24.61749 -49.15131 37115 ft 495 kts 75°
2026-04-20 21:37 -24.59812 -49.07867 37120 ft 495 kts 75°
2026-04-20 21:38 -24.57842 -49.00627 37113 ft 495 kts 75°
2026-04-20 21:38 -24.55872 -48.93375 37114 ft 495 kts 75°
2026-04-20 21:39 -24.53926 -48.86171 37119 ft 495 kts 75°
2026-04-20 21:39 -24.51960 -48.78931 37121 ft 494 kts 75°
2026-04-20 21:40 -24.49994 -48.71707 37117 ft 494 kts 75°
2026-04-20 21:40 -24.48042 -48.64478 37117 ft 493 kts 75°
2026-04-20 21:41 -24.46094 -48.57255 37108 ft 493 kts 75°
2026-04-20 21:41 -24.44138 -48.50032 37113 ft 493 kts 75°
2026-04-20 21:42 -24.42171 -48.42811 37108 ft 493 kts 76°
2026-04-20 21:42 -24.40216 -48.35649 37115 ft 493 kts 76°
2026-04-20 21:43 -24.38241 -48.28430 37123 ft 493 kts 76°
2026-04-20 21:43 -24.35966 -48.21323 37119 ft 496 kts 64°
2026-04-20 21:43 -24.34168 -48.18087 37119 ft 497 kts 53°
2026-04-20 21:44 -24.31902 -48.15235 37117 ft 497 kts 43°
2026-04-20 21:44 -24.26333 -48.10918 37109 ft 494 kts 26°
2026-04-20 21:45 -24.20279 -48.07351 37105 ft 494 kts 27°
2026-04-20 21:45 -24.14220 -48.03779 37107 ft 495 kts 27°
2026-04-20 21:46 -24.08155 -48.00208 37112 ft 495 kts 27°
2026-04-20 21:46 -24.02077 -47.96637 37109 ft 495 kts 27°
2026-04-20 21:47 -23.96004 -47.93079 36783 ft 494 kts 27°
2026-04-20 21:47 -23.92967 -47.91300 35976 ft 498 kts 27°
2026-04-20 21:47 -23.89944 -47.89528 35068 ft 501 kts 27°
2026-04-20 21:47 -23.86858 -47.87719 34109 ft 505 kts 27°
2026-04-20 21:48 -23.83754 -47.85898 33115 ft 506 kts 28°
2026-04-20 21:48 -23.80661 -47.84082 31968 ft 503 kts 28°
2026-04-20 21:48 -23.77643 -47.82207 30801 ft 495 kts 33°
2026-04-20 21:48 -23.74920 -47.79976 29762 ft 485 kts 41°
2026-04-20 21:49 -23.72529 -47.77484 29173 ft 465 kts 44°
2026-04-20 21:49 -23.70234 -47.75054 28543 ft 457 kts 44°
2026-04-20 21:49 -23.67942 -47.72652 27909 ft 454 kts 44°
2026-04-20 21:49 -23.65672 -47.70281 27277 ft 451 kts 44°
2026-04-20 21:50 -23.64170 -47.68714 26890 ft 450 kts 44°
2026-04-20 21:50 -23.61126 -47.65528 26533 ft 455 kts 44°
2026-04-20 21:50 -23.59614 -47.63942 26297 ft 455 kts 44°
2026-04-20 21:50 -23.57340 -47.61553 25945 ft 452 kts 44°
2026-04-20 21:51 -23.55082 -47.59178 25605 ft 450 kts 44°
2026-04-20 21:51 -23.52832 -47.56817 25269 ft 449 kts 44°
2026-04-20 21:51 -23.50590 -47.54465 24933 ft 446 kts 44°